Location: Larkspur
(54.4391°N, 113.7691°W)
Time: 13:17:15
(UTC+00:00)

Oscar 19 - Pass Details

Date: 06 December 2023
Orbit: 771 x 789 km, 98.9° (Epoch: 01 March)

Event Time Altitude Azimuth Distance (km) Brightness Sun altitude
Rises 01:04:25 0° 225° (SW) 3,239 15.0 -15.1°
Reaches altitude 10° 01:08:31 10° 258° (WSW) 2,321 14.5 -15.7°
Maximum altitude 01:10:14 12° 277° (W) 2,215 14.0 -15.9°
Drops below altitude 10° 01:11:57 10° 297° (WNW) 2,328 13.8 -16.1°
Sets 01:16:05 0° 330° (NNW) 3,266 14.1 -16.7°
